This is the latest recevied weather packets stored in our database for station/object W9PEM-13. If no packets are shown the sender has not sent any weather packets the latest 10 day(s).
| Time | Temp. | Humidity | Pressure | Rain* | Wind** | Luminosity | Snow |
|---|---|---|---|---|---|---|---|
| 1787364936 | 18.33° C | 97% | 1013.2 hPa | 0 mm | - | 0 W/m² | - |
| 1787364535 | 18.33° C | 97% | 1013.2 hPa | 0 mm | - | 0 W/m² | - |
| 1787364333 | 18.33° C | 97% | 1013.2 hPa | 0 mm | - | 0 W/m² | - |
| 1787363987 | 18.33° C | 97% | 1013.3 hPa | 0 mm | - | 0 W/m² | - |
| 1787363734 | 18.33° C | 97% | 1013.3 hPa | 0 mm | - | 0 W/m² | - |
| 1787363446 | 18.33° C | 96% | 1013.4 hPa | 0 mm | - | 0 W/m² | - |
| 1787362787 | 18.33° C | 96% | 1013.2 hPa | 0 mm | - | 0 W/m² | - |
| 1787362533 | 18.33° C | 96% | 1013.2 hPa | 0 mm | - | 0 W/m² | - |
| 1787362178 | 18.89° C | 95% | 1013.1 hPa | 0 mm | - | 0 W/m² | - |
| 1787361931 | 18.89° C | 95% | 1013.1 hPa | 0 mm | - | 0 W/m² | - |
| 1787361751 | 19.44° C | 95% | 1012.8 hPa | 0 mm | - | 0 W/m² | - |
| 1787361331 | 19.44° C | 95% | 1012.8 hPa | 0 mm | - | 0 W/m² | - |
| 1787361250 | 19.44° C | 95% | 1012.9 hPa | 0 mm | - | 0 W/m² | - |
| 1787360730 | 19.44° C | 95% | 1012.9 hPa | 0 mm | - | 0 W/m² | - |
| 1787360549 | 20° C | 93% | 1013.1 hPa | 0 mm | - | 1 W/m² | - |
| 1787360130 | 20° C | 93% | 1013.1 hPa | 0 mm | - | 1 W/m² | - |
| 1787359954 | 20° C | 92% | 1012.8 hPa | 0 mm | - | 3 W/m² | - |
| 1787359529 | 20° C | 92% | 1012.8 hPa | 0 mm | - | 3 W/m² | - |
| 1787359318 | 20.56° C | 90% | 1012.8 hPa | 0 mm | - | 9 W/m² | - |
| 1787358929 | 20.56° C | 90% | 1012.8 hPa | 0 mm | - | 9 W/m² | - |
| 1787358531 | 20.56° C | 89% | 1012.8 hPa | 0 mm | - | 21 W/m² | - |
| 1787358328 | 20.56° C | 89% | 1012.8 hPa | 0 mm | - | 21 W/m² | - |
| 1787357987 | 20.56° C | 89% | 1013.1 hPa | 0 mm | - | 9 W/m² | - |
| 1787357727 | 20.56° C | 89% | 1013.1 hPa | 0 mm | - | 9 W/m² | - |
| 1787357556 | 20.56° C | 89% | 1013.4 hPa | 0 mm | - | 24 W/m² | - |
* Rain latest hour (hover to see other rain measurements)
** Current wind speed in m/s (hover to see current wind gust speed)